TimeEST,TemperatureF,Dew PointF,Humidity,Sea Level PressureIn,VisibilityMPH,Wind Direction,Wind SpeedMPH,Gust SpeedMPH,PrecipitationIn,Events,Conditions,WindDirDegrees,DateUTC
12:52 AM,21.9,18.0,85,29.87,10.0,Calm,Calm,-,N/A,,Overcast,0,2013-03-05 05:52:00
2:52 AM,23.0,18.0,81,29.90,10.0,SW,3.5,-,N/A,,Overcast,220,2013-03-05 07:52:00
3:52 AM,23.0,18.0,81,29.92,10.0,Calm,Calm,-,N/A,,Overcast,0,2013-03-05 08:52:00
4:52 AM,23.0,18.0,81,29.95,10.0,Calm,Calm,-,N/A,,Overcast,0,2013-03-05 09:52:00
5:43 AM,23.0,17.6,80,29.92,10.0,Calm,Calm,-,N/A,,Overcast,0,2013-03-05 10:43:00
5:52 AM,23.0,18.0,81,29.97,10.0,Calm,Calm,-,N/A,,Overcast,0,2013-03-05 10:52:00
6:52 AM,23.0,19.0,85,29.99,10.0,Calm,Calm,-,N/A,,Overcast,0,2013-03-05 11:52:00
7:52 AM,24.1,19.0,81,30.02,10.0,Calm,Calm,-,N/A,,Overcast,0,2013-03-05 12:52:00
8:52 AM,25.0,19.9,81,30.03,10.0,Calm,Calm,-,N/A,,Overcast,0,2013-03-05 13:52:00
9:52 AM,27.0,21.0,78,30.04,10.0,Calm,Calm,-,N/A,,Overcast,0,2013-03-05 14:52:00
10:47 AM,28.4,21.2,74,29.99,10.0,Calm,Calm,-,N/A,,Overcast,0,2013-03-05 15:47:00
10:52 AM,28.9,21.9,75,30.04,10.0,Calm,Calm,-,N/A,,Overcast,0,2013-03-05 15:52:00
11:52 AM,30.0,23.0,75,30.04,10.0,Calm,Calm,-,N/A,,Overcast,0,2013-03-05 16:52:00
12:10 PM,32.0,24.8,75,29.99,10.0,Calm,Calm,-,N/A,,Overcast,0,2013-03-05 17:10:00
12:52 PM,35.1,25.0,67,30.03,10.0,SE,3.5,-,N/A,,Overcast,130,2013-03-05 17:52:00
1:52 PM,37.9,25.0,60,30.03,10.0,NE,4.6,-,N/A,,Partly Cloudy,50,2013-03-05 18:52:00
2:36 PM,37.4,26.6,65,29.99,10.0,East,4.6,-,N/A,,Overcast,90,2013-03-05 19:36:00
2:52 PM,37.9,26.1,62,30.04,10.0,NNE,5.8,-,N/A,,Overcast,20,2013-03-05 19:52:00
3:52 PM,37.9,27.0,65,30.05,10.0,Calm,Calm,-,N/A,,Overcast,0,2013-03-05 20:52:00
4:17 PM,37.4,28.4,70,30.01,10.0,Calm,Calm,-,N/A,,Overcast,0,2013-03-05 21:17:00
4:52 PM,37.9,28.0,68,30.06,10.0,Calm,Calm,-,N/A,,Overcast,0,2013-03-05 21:52:00
5:52 PM,35.1,28.9,78,30.07,10.0,Calm,Calm,-,N/A,,Mostly Cloudy,0,2013-03-05 22:52:00
6:52 PM,33.1,28.9,85,30.09,10.0,Calm,Calm,-,N/A,,Overcast,0,2013-03-05 23:52:00
7:52 PM,34.0,28.9,82,30.09,10.0,Calm,Calm,-,N/A,,Overcast,0,2013-03-06 00:52:00
8:27 PM,32.0,28.4,87,30.04,10.0,Calm,Calm,-,N/A,,Overcast,0,2013-03-06 01:27:00
8:44 PM,32.0,28.4,87,30.04,10.0,Calm,Calm,-,N/A,,Overcast,0,2013-03-06 01:44:00
8:52 PM,32.0,30.0,92,30.08,10.0,Calm,Calm,-,N/A,,Overcast,0,2013-03-06 01:52:00
9:07 PM,32.0,28.4,87,30.04,10.0,Calm,Calm,-,N/A,,Overcast,0,2013-03-06 02:07:00
9:52 PM,32.0,28.9,88,30.09,10.0,Calm,Calm,-,N/A,,Overcast,0,2013-03-06 02:52:00
10:05 PM,32.0,28.4,87,30.04,10.0,Calm,Calm,-,N/A,,Overcast,0,2013-03-06 03:05:00
10:52 PM,32.0,30.0,92,30.09,10.0,Calm,Calm,-,N/A,,Overcast,0,2013-03-06 03:52:00
11:52 PM,34.0,30.0,85,30.11,6.0,East,8.1,-,0.00,Snow,Light Snow,90,2013-03-06 04:52:00